Regional Weather Roundup
Issued by NWS

Home | Current Version | Previous Version | Text Only | Print | Product List | Glossary On
Versions: 1 2 3 4 5 6 7 8 9 10 11 12 13 14 15 16 17 18 19 20 21 22 23 24 25 26 27 28 29 30 31 32 33 34 35 36 37 38 39 40 41 42 43 44 45 46 47 48 49 50
000
ASUS43 KDMX 251801
RWRIA

WEATHER ROUNDUP FOR IOWA
NATIONAL WEATHER SERVICE DES MOINES IA
100 PM CDT WED APR 25 2018

NOTE: "FAIR" INDICATES FEW OR NO CLOUDS BELOW 12,000 FEET WITH NO
SIGNIFICANT WEATHER AND/OR OBSTRUCTIONS TO VISIBILITY.

* - THESE STATIONS ARE NOT NWS STATIONS...THUS NOT UNDER NWS
QUALITY CONTROL.  THEY ALSO DO NOT REPORT WEATHER SUCH
AS PRECIPITATION OR FOG.

IAZ001>003-012>014-020>022-031>034-043>046-251900-
   NORTHWEST IOWA

CITY           SKY/WX    TMP DP  RH WIND       PRES   REMARKS
CARROLL *      SUNNY     59  28  31 N8G15     30.16F
CHEROKEE *     SUNNY     55  31  39 CALM      30.19F
DENISON *      SUNNY     57  30  35 N13       30.19F
LE MARS *      SUNNY     55  28  35 VRB6G12   30.20F
ORANGE CITY *  SUNNY     55  32  41 N7        30.19F
SHELDON *      SUNNY     55  28  35 N7G13     30.18F
SIOUX CITY     SUNNY     55  35  47 MISG      30.21F
6HR MIN TEMP:  38; 6HR MAX TEMP:  56;

SPENCER        SUNNY     54  28  36 CALM      30.19F
6HR MIN TEMP:  35; 6HR MAX TEMP:  54;

STORM LAKE *     N/A     54  30  40 N8G17     30.18F
$$

IAZ055>058-069>071-079>083-090>094-251900-
   SOUTHWEST IOWA

CITY           SKY/WX    TMP DP  RH WIND       PRES   REMARKS
ATLANTIC *     CLOUDY    55  32  41 N8G16     30.18F
AUDUBON *      MOSUNNY   57  28  33 N7        30.18F
CRESTON *      CLOUDY    52  37  58 NW8       30.18F
HARLAN  *      SUNNY     57  32  38 NE8       30.21F
LAMONI         LGT RAIN  50  40  68 N7        30.15F
6HR MIN TEMP:  46; 6HR MAX TEMP:  50; 6HR PCP:  0.05;

RED OAK *      CLOUDY    50  41  71 NW7       30.20F
SHENANDOAH *   PTSUNNY   48  45  87 N9        30.21F
$$

IAZ047>049-059>061-072>074-084-251900-
   CENTRAL IOWA

CITY           SKY/WX    TMP DP  RH WIND       PRES   REMARKS
AMES           SUNNY     60  30  32 CALM      30.15F
6HR MIN TEMP:  43; 6HR MAX TEMP:  61;

ANKENY *       PTSUNNY   59  30  33 N9        30.15F
BOONE *        SUNNY     59  30  33 CALM      30.14F
CHARITON *     CLOUDY    57  37  47 N8        30.13F
DES MOINES     PTSUNNY   61  30  31 N10       30.14F
6HR MIN TEMP:  48; 6HR MAX TEMP:  61;

GRINNELL*      PTSUNNY   59  26  28 N8        30.13F
KNOXVILLE *    CLOUDY    59  34  38 NE9G16    30.12F
MARSHALLTOWN   SUNNY     60  32  34 N12       30.13F
6HR MIN TEMP:  41; 6HR MAX TEMP:  61;

NEWTON *       MOSUNNY   57  28  33 VRB5G17   30.13F
PELLA *        CLOUDY    60  30  32 N8        30.14F
$$

IAZ004>006-015-016-023>025-035-036-251900-
   NORTH CENTRAL IOWA

CITY           SKY/WX    TMP DP  RH WIND       PRES   REMARKS
ALGONA *       SUNNY     52  32  46 N6G14     30.19F
CLARION *      MOSUNNY   54  34  47 VRB6G13   30.17F
ESTHERVILLE    SUNNY     50  35  56 N9        30.19F
6HR MIN TEMP:  34; 6HR MAX TEMP:  50;

FORT DODGE *   SUNNY     56  34  43 VRB6      30.17F
MASON CITY     SUNNY     55  35  47 N6        30.17F
6HR MIN TEMP:  35; 6HR MAX TEMP:  56;

FOREST CITY *  FAIR      54  34  47 N6        30.17F
WEBSTER CITY * SUNNY     57  32  38 NW7G15    30.14F
IOWA FALLS *   FAIR      58  31  36 N5        30.16F
$$

IAZ007>011-017>019-026>030-037>042-050>054-066-251900-
   NORTHEAST IOWA

CITY           SKY/WX    TMP DP  RH WIND       PRES   REMARKS
CEDAR RAPIDS   FAIR      61  32  33 VRB7      30.10F
6HR MIN TEMP:  46; 6HR MAX TEMP:  62; 6HR PCP: TRACE;

CHARLES CITY * FAIR      55  32  41 N8        30.15F
CLINTON *      FAIR      59  33  37 E14       30.10F
DECORAH *      FAIR      54  32  43 N9G15     30.13F
DUBUQUE        FAIR      57  33  40 VRB7      30.11F
6HR MIN TEMP:  43; 6HR MAX TEMP:  58;

MONTICELLO *   FAIR      59  32  36 NW8       30.11F
OELWEIN *      FAIR      57  32  38 N10G20    30.13F
WATERLOO       FAIR      59  32  36 N14       30.13F
6HR MIN TEMP:  38; 6HR MAX TEMP:  59;

$$

IAZ064-065-067-068-078-251900-
   EAST CENTRAL IOWA

CITY           SKY/WX    TMP DP  RH WIND       PRES   REMARKS
DAVENPORT      FAIR      62  33  33 N7G18     30.12F
6HR MIN TEMP:  47; 6HR MAX TEMP:  62;

IOWA CITY      FAIR      60  34  37 N8        30.12F
6HR MIN TEMP:  48; 6HR MAX TEMP:  61;

MT. PLEASANT * CLOUDY    59  34  38 N9        30.10F
MUSCATINE *    FAIR      61  32  33 N9G17     30.11F
QUAD CITIES    FAIR      63  37  38 N9        30.09F
6HR MIN TEMP:  49; 6HR MAX TEMP:  63;

$$

IAZ062-063-075>077-085>089-095>099-251900-
   SOUTHEAST IOWA

CITY           SKY/WX    TMP DP  RH WIND       PRES   REMARKS
BURLINGTON     CLOUDY    59  38  45 N9        30.09F
6HR MIN TEMP:  49; 6HR MAX TEMP:  59;

FAIRFIELD *    CLOUDY    59  36  41 E8G16     30.10F
FORT MADISON * CLOUDY    57  39  51 NE6       30.10F
KEOKUK *       CLOUDY    57  39  51 N9        30.09F
OSKALOOSA *    FAIR      61  32  33 NE9G18    30.11F
CENTERVILLE *  FAIR      57  41  54 N6        30.14F
OTTUMWA        PTSUNNY   61  34  36 NE9       30.11F
6HR MIN TEMP:  48; 6HR MAX TEMP:  62;

WASHINGTON *   PTSUNNY   61  34  36 NE7G16    30.11F
$$

ABBREVIATIONS USED IN REMARKS
   TC - TEMPERATURES IN CELSIUS
  WCI - WIND CHILL INDEX
   HX - HEAT INDEX
  VSB - VISIBILITY
$$





USA.gov is the U.S. government's official web portal to all federal, state and local government web resources and services.